Temperature
28 28 28 27 27 27 26 27 27 27 27 27 27 26 25 24 23 22 21 20 19 18 18 17 16 15 15 14 13 12 12 11 11 10 10 10 9 9 9 9 9 8 8 8
27 28 28 27 27 27 27 27 27 27 27 28 26 25 24 23 22 22 21 20 19 18 17 17 16 15 15 14 13 12 12 11 11 10 10 10 9 9 9 9 8 8 8 8
26 27 27 26 28 27 27 28 27 27 27 27 26 25 24 23 22 22 21 20 19 18 18 17 16 15 14 14 13 12 12 11 10 10 10 9 9 9 9 8 8 8 8 8
26 26 25 27 28 28 27 28 28 27 27 26 26 25 24 23 22 22 21 20 19 18 17 17 16 15 14 14 13 12 12 11 10 10 10 9 9 9 9 8 8 8 8 8
26 26 26 27 27 27 27 27 28 27 27 26 24 23 24 22 22 21 21 20 19 18 17 16 16 15 14 14 13 12 12 11 10 10 9 9 9 9 9 8 8 8 8 8
26 25 25 27 27 26 27 26 27 27 26 25 24 25 26 23 21 21 20 19 18 18 17 16 16 15 14 14 13 12 12 11 10 10 9 9 9 9 9 8 8 8 8 8
25 25 26 28 26 26 26 26 27 26 26 25 25 25 24 22 21 20 20 19 18 18 17 16 15 15 14 13 13 12 11 11 10 10 9 9 9 9 8 8 8 8 8 8
25 25 26 26 26 26 26 25 25 25 25 24 24 23 22 22 21 20 19 19 18 18 17 16 15 15 14 13 12 12 11 10 10 10 9 9 9 9 8 8 8 8 8 8
26 26 25 25 25 25 23 24 24 25 24 24 23 23 22 21 20 20 19 19 18 17 17 16 15 14 14 13 12 12 11 10 10 10 9 9 9 9 8 8 8 8 8 8
25 26 26 25 24 23 23 23 23 23 23 23 23 22 22 21 20 19 19 18 18 17 16 16 15 14 14 13 12 11 11 10 10 10 10 9 9 9 9 8 8 8 8 8
24 25 25 25 23 22 22 22 23 23 23 22 22 22 21 20 20 19 18 18 18 17 16 15 15 14 13 13 12 11 11 10 10 10 10 9 9 9 8 8 8 8 8 8
24 23 23 23 21 21 21 21 22 22 22 21 21 21 20 20 19 18 18 18 17 17 16 15 15 14 13 13 12 11 11 10 10 10 10 9 9 9 9 9 9 8 8 8
20 20 20 20 20 20 20 21 21 20 20 20 20 20 19 19 18 18 18 17 17 16 16 15 14 14 13 12 12 11 11 10 10 10 10 9 9 9 9 9 9 9 9 8
17 18 19 19 19 18 19 19 20 19 19 19 19 18 18 18 18 17 17 17 16 16 15 15 14 14 13 12 12 11 11 10 10 10 10 9 9 9 9 9 9 9 9 9
17 17 18 17 17 18 18 18 18 18 18 17 17 17 17 17 17 17 16 16 16 15 15 14 14 13 12 12 12 11 11 10 10 10 10 9 9 9 9 9 9 9 9 9
16 17 17 16 16 17 17 17 17 17 17 16 16 16 16 16 16 16 15 15 15 15 14 14 13 13 12 12 12 11 11 11 10 10 10 10 10 10 10 9 9 9 9 9
16 16 15 15 15 15 15 16 16 16 16 15 15 15 15 15 15 15 14 14 14 14 13 13 13 13 12 12 12 11 11 11 10 10 10 10 10 10 9 9 9 9 9 9
14 14 14 14 14 14 14 14 14 14 14 14 14 14 14 14 14 14 13 13 13 13 13 13 13 12 12 12 12 11 11 10 10 10 10 10 9 9 9 9 9 9 9 9
13 13 13 13 13 13 13 13 13 13 13 13 13 13 13 13 13 13 12 12 12 12 12 12 12 12 12 11 11 11 10 10 10 10 10 9 9 9 9 9 9 9 9 9
13 13 13 13 13 13 13 13 13 13 13 13 12 12 12 12 12 12 12 12 12 12 12 11 11 11 11 11 11 10 10 10 10 10 9 9 9 9 9 9 9 9 9 9
12 12 12 12 12 12 12 12 12 12 12 12 12 12 12 12 11 11 11 12 11 11 11 11 11 11 11 10 10 10 10 10 9 9 9 9 9 9 9 8 8 8 8 8
12 12 12 12 12 12 11 11 11 11 11 11 11 11 11 11 11 11 11 11 10 10 10 10 10 10 10 10 10 9 9 9 9 9 9 9 8 8 8 8 8 8 8 8
11 11 11 11 11 11 11 11 11 11 11 11 10 10 10 10 10 10 11 10 10 10 9 9 10 10 9 9 9 9 9 9 9 8 8 8 8 8 8 8 8 8 8 8
11 10 10 10 10 10 10 11 10 10 10 10 10 10 10 10 10 10 10 10 9 9 9 9 9 9 9 8 8 8 8 8 8 8 8 8 8 8 8 8 8 8 8 8
10 10 10 10 10 10 10 10 10 10 10 10 10 10 10 10 9 9 9 9 9 8 8 8 8 8 8 8 8 8 8 8 8 7 7 7 7 7 7 7 7 7 8 8
10 10 10 9 9 9 10 10 10 10 10 10 10 10 9 9 9 9 9 8 8 8 8 8 8 7 7 7 7 7 7 7 7 7 7 6 7 7 7 7 7 7 7 7
10 10 10 10 10 10 10 10 10 10 9 9 9 9 9 9 9 8 8 8 8 7 7 7 7 7 7 7 7 7 7 6 6 6 6 6 6 7 7 7 7 7 7 7
Wind_Speed
9 7 8 9 9 9 11 11 10 8 7 4 6 8 9 10 10 10 10 10 9 7 5 5 4 4 4 4 4 5 7 8 8 9 9 10 10 11 10 11 11 11 12 12
10 9 9 11 11 11 11 11 10 10 8 2 4 6 9 10 10 10 10 10 8 7 6 5 4 4 4 4 5 6 7 8 8 9 10 10 11 11 10 11 11 11 12 12
11 7 9 11 9 8 8 8 8 7 3 4 6 8 9 9 10 10 9 9 8 6 5 5 4 4 4 5 5 6 8 8 9 9 10 10 11 11 11 11 11 11 12 12
10 7 10 4 0 4 6 6 6 5 2 5 5 6 7 8 9 9 9 8 7 6 5 5 4 4 4 5 6 7 8 9 9 9 10 10 10 11 11 11 11 11 12 12
8 9 8 5 4 5 6 6 5 6 5 5 4 5 7 9 9 9 8 7 6 5 5 4 4 4 4 5 6 7 8 8 8 9 10 10 11 11 11 11 11 11 12 12
8 9 8 2 5 4 4 6 3 5 6 7 7 6 3 9 10 9 8 7 6 5 5 5 4 4 5 6 7 8 8 8 9 9 10 11 11 11 11 11 11 12 12 12
11 10 7 2 6 6 6 2 3 5 6 8 8 5 3 7 9 9 9 8 7 6 5 5 4 5 6 7 7 8 8 8 9 9 10 11 10 10 11 11 11 12 12 12
7 9 5 6 5 4 4 4 1 4 5 8 8 5 5 7 9 9 9 9 8 7 6 5 5 6 7 7 7 7 8 9 9 9 10 9 10 10 11 10 11 11 11 11
4 2 4 0 2 4 4 5 5 5 6 7 8 8 8 8 9 9 9 8 7 7 6 5 6 6 8 7 7 7 8 9 9 10 9 9 9 10 10 9 9 10 10 10
5 4 2 2 4 5 6 7 7 7 7 7 9 9 8 8 9 9 9 8 7 7 7 6 6 6 7 7 7 8 9 9 9 9 9 9 8 9 9 9 9 9 10 10
8 7 6 3 5 8 8 8 7 6 6 6 7 8 8 8 8 8 7 7 7 7 7 7 6 6 6 6 7 8 9 9 9 9 8 8 8 8 9 9 8 9 10 11
6 6 7 8 10 11 10 9 7 6 4 4 5 6 6 6 6 6 7 7 7 7 7 6 6 6 6 6 7 8 9 9 8 8 7 8 9 9 8 11 10 13 14 13
5 8 8 9 9 10 9 8 6 3 2 2 2 3 4 3 3 4 5 6 7 7 7 7 7 7 6 6 7 8 9 9 8 8 8 8 8 9 10 9 12 15 16 16
5 4 4 7 8 9 8 7 6 5 4 3 2 1 1 2 2 3 4 5 5 6 7 7 8 8 7 6 7 9 10 9 9 8 8 9 9 9 9 10 10 9 9 13
7 6 6 7 8 10 9 9 9 8 7 6 5 3 2 1 1 2 3 3 4 6 7 8 9 8 7 7 8 9 9 8 7 8 9 9 9 10 10 10 10 10 10 6
6 8 9 11 12 12 12 11 10 10 8 7 6 5 4 3 3 2 2 3 5 7 8 8 9 8 7 8 8 8 9 9 9 9 9 9 9 9 9 9 10 10 10 9
8 10 11 12 12 12 13 12 11 10 9 9 7 7 6 6 5 5 6 6 6 8 8 8 9 8 8 9 10 9 9 8 9 9 9 9 9 9 9 9 10 10 9 7
9 9 10 10 10 11 11 11 11 10 9 9 8 7 7 6 6 7 7 8 8 9 9 9 8 8 9 10 9 9 8 9 8 8 8 9 9 9 9 9 10 11 9 8
9 9 9 9 9 9 10 10 10 9 9 8 8 7 7 7 7 8 9 9 10 11 10 10 8 9 10 10 8 8 9 9 9 9 8 8 8 9 9 9 9 9 9 9
7 8 8 8 9 9 9 9 9 9 9 9 9 9 9 9 10 10 10 10 9 10 11 10 9 9 10 9 8 9 9 9 9 9 8 8 8 8 8 8 9 9 8 8
6 7 8 9 9 9 9 10 9 9 9 9 9 10 10 11 11 11 11 11 10 10 11 9 8 8 7 6 7 8 8 8 8 8 8 8 8 8 8 8 8 8 8 8
6 7 9 9 10 10 9 9 10 11 11 11 11 11 12 12 12 12 11 10 11 9 9 9 7 5 5 5 7 7 7 8 7 7 7 7 7 7 7 8 8 7 7 7
7 8 9 10 10 11 11 11 11 11 11 12 12 12 12 11 11 12 12 11 12 10 9 8 5 3 4 6 7 7 7 7 6 6 6 7 7 7 7 7 7 7 6 7
8 9 10 10 11 12 12 12 12 11 12 12 11 10 10 10 10 11 12 11 10 9 9 5 1 3 7 6 6 6 6 6 6 6 6 6 6 6 6 6 6 6 6 6
10 11 11 11 12 11 12 12 13 12 12 10 11 11 9 9 11 12 12 13 11 9 9 5 3 5 6 6 5 5 5 4 4 5 5 5 5 6 5 5 5 6 5 5
11 11 11 11 12 11 12 12 11 11 11 11 10 10 10 10 12 12 11 12 12 9 8 6 5 5 5 5 4 4 4 3 3 4 4 4 5 5 5 5 6 5 5 5
12 12 11 11 11 11 11 11 12 12 12 11 12 11 12 12 11 12 12 11 9 8 7 6 6 5 4 4 3 2 2 2 3 3 3 3 4 4 5 5 5 5 5 5
Wind_Direction
277 278 269 268 263 244 242 264 278 285 287 277 201 200 191 187 185 184 184 187 189 195 202 213 227 241 257 275 286 294 295 295 296 297 297 296 297 297 296 293 290 290 290 288
267 262 262 264 264 261 251 254 261 270 274 265 170 182 184 188 191 195 196 195 195 200 208 221 236 251 262 274 286 290 291 294 297 297 297 297 298 297 294 292 290 290 288 288
267 260 263 259 257 251 244 241 251 261 276 156 179 190 195 195 198 203 200 197 199 206 213 223 236 245 261 277 284 286 288 293 296 297 298 300 302 300 296 295 293 291 290 289
262 257 257 279 128 261 255 244 238 257 229 194 198 195 200 200 202 203 200 199 202 208 211 218 223 233 255 275 280 285 289 293 297 298 299 302 301 298 297 294 294 293 293 292
253 250 257 247 202 217 234 252 226 230 216 184 171 192 209 200 201 202 197 196 199 205 210 213 225 237 257 274 282 287 292 297 300 301 300 300 299 300 299 297 295 294 292 292
241 256 261 243 133 165 234 249 187 202 206 185 186 242 231 171 189 195 192 189 193 197 204 211 221 230 255 275 287 293 298 300 300 298 296 297 298 299 299 297 293 294 294 292
242 251 258 95 137 177 237 334 107 207 215 197 212 257 102 156 178 187 189 191 193 199 211 219 221 229 256 276 285 294 299 297 295 294 293 292 294 295 296 295 296 294 294 293
239 248 255 118 164 219 341 27 282 241 231 217 220 209 170 172 179 185 189 194 197 202 215 218 221 234 258 273 284 291 292 291 293 294 295 296 295 293 293 293 291 291 293 296
257 289 46 143 272 315 332 301 292 271 255 230 223 214 202 192 192 195 198 200 202 208 217 221 223 237 260 276 283 286 288 289 293 296 295 294 295 294 293 291 291 298 302 304
263 264 305 303 305 309 298 290 291 284 264 238 227 219 209 202 199 200 200 200 203 212 224 228 231 240 254 269 274 278 283 288 292 292 294 297 296 294 296 298 300 303 305 306
263 281 290 290 353 344 330 310 296 287 266 242 228 221 208 205 205 204 201 202 205 214 227 235 234 241 252 260 266 274 282 286 287 290 295 296 292 293 292 294 298 294 301 303
292 344 320 317 338 338 332 326 317 299 272 239 223 220 210 206 203 203 204 200 207 218 230 237 237 243 251 255 257 268 278 283 289 294 297 295 297 295 257 252 258 248 252 266
310 317 314 315 331 344 338 337 337 329 299 259 222 213 206 205 198 201 205 208 213 220 227 235 237 242 247 250 251 259 271 281 287 290 293 292 294 297 300 281 244 242 243 244
354 340 359 10 5 6 6 12 26 39 41 46 64 105 163 186 203 215 223 231 231 231 233 236 240 243 243 244 247 256 266 269 267 278 284 287 288 290 291 298 305 301 259 234
43 46 47 35 31 29 29 34 40 40 37 38 44 45 33 6 293 269 263 257 247 245 246 245 247 249 244 244 248 257 266 271 275 282 283 282 284 285 286 292 296 301 306 285
66 62 55 47 39 33 31 31 31 28 26 25 25 19 5 349 332 318 305 292 276 270 264 257 253 252 245 244 248 253 256 250 257 274 279 281 281 284 290 297 299 302 305 311
69 55 45 39 34 30 29 26 24 19 15 13 10 6 2 355 346 341 333 318 294 284 278 266 259 255 247 241 246 257 267 261 228 257 271 280 284 288 293 297 299 302 305 311
65 56 47 37 29 24 21 19 17 13 9 5 3 3 359 356 347 338 331 321 304 292 283 276 270 262 252 244 244 256 263 271 272 273 279 281 286 289 290 292 296 301 305 303
58 47 38 31 23 16 11 7 3 2 2 359 356 353 347 344 339 332 328 317 305 298 297 291 272 261 256 248 243 244 254 263 268 271 274 275 274 279 287 293 298 302 304 308
46 32 23 16 11 4 357 354 350 350 352 350 346 343 341 338 332 325 318 305 306 310 310 303 285 267 260 248 234 248 253 259 266 271 274 277 281 285 289 295 301 305 306 308
25 12 5 359 353 348 345 342 338 336 336 335 333 332 331 329 327 324 318 314 321 325 317 301 284 276 266 254 227 249 254 258 264 269 273 277 282 287 293 299 302 303 305 310
359 353 347 343 338 334 333 327 323 322 321 320 320 323 323 322 322 321 315 316 320 332 318 305 297 301 285 259 246 251 255 258 264 271 274 277 281 286 291 299 302 305 313 316
337 336 331 329 327 321 318 316 316 316 315 316 316 316 319 319 319 317 317 326 324 331 314 308 334 343 281 259 257 255 258 262 266 272 276 278 280 284 291 298 303 310 318 322
318 319 317 316 314 310 310 315 315 311 308 304 303 307 309 309 312 317 321 325 325 322 312 325 316 268 264 266 263 261 261 260 266 274 280 280 283 289 295 299 305 313 320 323
305 306 305 307 305 306 307 304 302 301 298 300 302 305 307 313 315 318 318 318 321 311 310 309 242 250 264 272 268 266 268 275 280 287 285 291 293 297 302 304 307 311 314 317
295 294 298 297 295 293 295 297 299 301 302 303 303 307 311 313 313 313 312 314 316 314 306 305 298 277 279 279 274 276 285 280 272 275 291 299 295 300 307 311 313 314 317 319
288 286 282 282 286 291 296 297 297 297 298 300 304 306 307 308 309 313 314 313 314 314 315 311 304 296 296 300 299 300 301 299 297 299 303 299 298 304 312 311 310 315 319 324
Height
1488 1486 1487 1489 1489 1490 1494 1492 1495 1492 1490 1488 1491 1495 1500 1504 1507 1510 1513 1515 1517 1518 1520 1520 1520 1520 1519 1519 1517 1516 1514 1512 1510 1508 1506 1503 1501 1498 1495 1493 1491 1488 1486 1484
1490 1485 1485 1488 1485 1485 1486 1487 1488 1488 1488 1485 1490 1495 1498 1502 1504 1507 1509 1512 1514 1515 1516 1517 1517 1517 1516 1515 1514 1512 1510 1509 1507 1504 1502 1499 1497 1494 1491 1489 1486 1484 1482 1479
1491 1483 1487 1490 1481 1480 1481 1480 1483 1486 1484 1486 1490 1493 1496 1499 1502 1504 1506 1509 1511 1512 1513 1513 1514 1513 1512 1512 1510 1509 1507 1505 1503 1500 1498 1495 1493 1490 1487 1485 1482 1480 1477 1475
1487 1490 1502 1481 1474 1476 1478 1478 1478 1480 1482 1486 1488 1491 1494 1497 1499 1501 1504 1506 1508 1509 1510 1510 1510 1510 1509 1508 1507 1505 1504 1502 1499 1497 1494 1491 1488 1486 1483 1481 1478 1476 1473 1470
1486 1490 1487 1475 1474 1476 1478 1478 1475 1478 1481 1485 1488 1491 1491 1494 1496 1498 1501 1503 1505 1506 1507 1507 1507 1507 1506 1505 1504 1502 1500 1498 1496 1493 1490 1487 1484 1482 1479 1476 1473 1471 1468 1465
1485 1492 1493 1476 1472 1475 1477 1479 1474 1477 1480 1483 1487 1485 1484 1489 1493 1495 1498 1500 1501 1503 1503 1503 1503 1503 1502 1502 1500 1499 1497 1494 1491 1488 1485 1483 1480 1477 1475 1472 1469 1466 1463 1460
1483 1486 1476 1467 1473 1476 1483 1479 1475 1476 1478 1481 1482 1483 1485 1487 1490 1492 1495 1496 1498 1499 1500 1500 1500 1499 1498 1498 1496 1494 1492 1489 1487 1484 1481 1479 1476 1473 1470 1467 1464 1461 1458 1455
1479 1485 1480 1471 1472 1474 1474 1475 1475 1476 1477 1479 1480 1482 1484 1486 1487 1489 1491 1493 1494 1495 1496 1496 1495 1495 1494 1493 1492 1490 1487 1485 1483 1480 1478 1475 1472 1469 1466 1463 1460 1457 1454 1451
1472 1474 1473 1473 1473 1475 1475 1475 1475 1475 1476 1477 1478 1479 1481 1483 1485 1487 1488 1490 1491 1492 1492 1492 1492 1491 1490 1489 1488 1486 1483 1481 1479 1476 1474 1471 1468 1465 1462 1459 1456 1454 1451 1448
1473 1468 1471 1473 1474 1475 1475 1474 1474 1474 1474 1474 1475 1476 1478 1480 1481 1483 1484 1486 1487 1488 1488 1488 1488 1487 1486 1484 1483 1481 1479 1477 1475 1472 1470 1467 1464 1461 1459 1456 1453 1450 1447 1444
1472 1471 1471 1471 1473 1474 1473 1472 1471 1471 1471 1471 1472 1473 1474 1476 1477 1479 1480 1481 1482 1483 1484 1484 1483 1483 1482 1480 1479 1477 1475 1473 1471 1469 1466 1463 1460 1458 1455 1453 1450 1446 1443 1440
1471 1474 1475 1474 1474 1473 1471 1470 1469 1468 1468 1468 1469 1470 1471 1473 1474 1475 1477 1477 1478 1479 1480 1480 1479 1478 1477 1476 1474 1473 1471 1470 1468 1465 1462 1459 1457 1454 1451 1448 1445 1442 1438 1435
1478 1477 1477 1475 1474 1472 1470 1468 1467 1466 1466 1466 1467 1468 1469 1470 1471 1472 1473 1474 1474 1474 1475 1475 1475 1474 1473 1471 1470 1468 1466 1465 1463 1461 1458 1455 1453 1450 1447 1444 1441 1437 1434 1431
1478 1477 1475 1475 1473 1472 1469 1468 1467 1466 1465 1465 1466 1466 1467 1468 1469 1469 1470 1470 1471 1471 1471 1470 1470 1469 1468 1467 1465 1463 1462 1460 1458 1456 1454 1451 1449 1446 1443 1440 1437 1434 1430 1427
1478 1477 1477 1476 1474 1472 1470 1469 1467 1466 1466 1465 1465 1465 1465 1466 1466 1467 1467 1467 1467 1467 1466 1466 1465 1464 1463 1462 1460 1459 1457 1456 1454 1452 1449 1447 1444 1442 1439 1436 1433 1429 1426 1423
1479 1479 1478 1477 1475 1473 1471 1470 1468 1468 1467 1466 1465 1465 1465 1465 1464 1464 1464 1463 1463 1462 1462 1460 1460 1459 1458 1457 1455 1454 1452 1450 1448 1446 1445 1443 1440 1438 1435 1432 1429 1426 1423 1420
1480 1480 1479 1478 1477 1475 1474 1472 1471 1470 1468 1467 1466 1465 1464 1463 1463 1462 1461 1460 1458 1458 1457 1455 1454 1453 1452 1450 1450 1449 1448 1446 1443 1441 1440 1438 1436 1433 1431 1428 1425 1422 1419 1416
1482 1482 1481 1480 1479 1477 1475 1474 1472 1470 1469 1467 1466 1464 1463 1462 1460 1459 1458 1456 1454 1453 1452 1451 1449 1447 1446 1445 1443 1443 1442 1441 1439 1438 1436 1433 1431 1429 1426 1424 1421 1418 1415 1412
1483 1482 1482 1480 1479 1478 1477 1475 1473 1471 1469 1467 1465 1463 1462 1460 1458 1457 1454 1452 1450 1449 1447 1445 1443 1441 1440 1439 1438 1436 1435 1434 1434 1432 1430 1428 1426 1424 1422 1420 1417 1414 1411 1408
1483 1483 1482 1481 1479 1478 1476 1474 1472 1470 1468 1466 1464 1462 1460 1458 1456 1453 1451 1449 1447 1445 1442 1440 1437 1435 1433 1432 1432 1431 1430 1429 1428 1427 1425 1424 1422 1420 1418 1416 1413 1410 1408 1405
1483 1482 1481 1479 1478 1476 1475 1473 1471 1469 1467 1465 1463 1460 1458 1456 1453 1450 1448 1445 1442 1439 1436 1433 1431 1429 1428 1427 1426 1425 1425 1424 1423 1422 1421 1419 1418 1416 1414 1412 1409 1407 1404 1402
1482 1481 1479 1478 1476 1474 1472 1470 1468 1466 1464 1462 1460 1458 1455 1453 1450 1447 1445 1442 1439 1435 1431 1429 1427 1425 1423 1422 1421 1420 1420 1419 1418 1417 1416 1415 1414 1412 1410 1408 1406 1404 1401 1399
1480 1479 1477 1476 1474 1472 1470 1467 1465 1463 1461 1459 1456 1454 1452 1449 1447 1444 1441 1438 1435 1430 1427 1425 1422 1420 1418 1417 1416 1416 1415 1415 1414 1413 1412 1411 1410 1408 1407 1405 1403 1401 1399 1396
1478 1476 1474 1473 1470 1468 1466 1463 1461 1459 1457 1455 1452 1450 1448 1445 1443 1440 1437 1433 1430 1425 1423 1420 1417 1415 1413 1412 1412 1411 1411 1410 1409 1409 1408 1407 1406 1405 1403 1402 1400 1398 1396 1394
1474 1473 1471 1469 1467 1464 1462 1459 1457 1455 1452 1450 1448 1446 1444 1442 1439 1436 1432 1429 1425 1421 1419 1416 1413 1411 1409 1408 1407 1407 1406 1406 1405 1404 1403 1403 1402 1401 1400 1398 1397 1395 1394 1392
1470 1468 1466 1465 1463 1460 1458 1455 1453 1450 1448 1446 1444 1442 1440 1437 1435 1431 1428 1424 1421 1417 1415 1412 1410 1408 1406 1405 1404 1403 1402 1401 1400 1400 1399 1398 1398 1397 1396 1395 1394 1393 1391 1390
1465 1463 1460 1459 1457 1455 1453 1451 1448 1446 1444 1442 1439 1437 1435 1433 1430 1427 1423 1420 1417 1413 1411 1408 1406 1405 1403 1401 1400 1399 1399 1398 1397 1396 1396 1395 1395 1394 1393 1392 1391 1391 1390 1388